Location: USNO
(38.9242°N, 77.0663°W)
Time: 04:40:51
(UTC-05:00)

N. Korean satellite - Pass Details

Date: 08 October 2017
Orbit: 461 x 513 km, 97.2° (Epoch: 10 December)

Event Time Altitude Azimuth Distance (km) Brightness Sun altitude
Rises 20:11:53 0° 207° (SSW) 2,575 10.5 -18.7°
Reaches altitude 10° 20:14:44 10° 232° (SW) 1,687 9.9 -19.3°
Maximum altitude 20:16:49 15° 267° (W) 1,417 9.9 -19.7°
Drops below altitude 10° 20:18:53 10° 302° (WNW) 1,677 10.3 -20.1°
Sets 20:21:43 0° 327° (NNW) 2,550 10.8 -20.6°
